Time,TemperatureF,DewpointF,PressureIn,WindDirection,WindDirectionDegrees,WindSpeedMPH,WindSpeedGustMPH,Humidity,HourlyPrecipIn,Conditions,Clouds,dailyrainin,SoftwareType,DateUTC
2013-05-04 00:02:00,69.3,65.3,29.74,East,87,0.0,7.0,87,0.00,,,0.00,meteohub,2013-05-04 04:02:00,
2013-05-04 00:07:00,69.3,65.3,29.74,ENE,57,0.0,4.0,87,0.00,,,0.00,meteohub,2013-05-04 04:07:00,
2013-05-04 00:12:00,69.1,65.1,29.74,ENE,75,3.0,4.0,87,0.00,,,0.00,meteohub,2013-05-04 04:12:00,
2013-05-04 00:18:00,69.1,65.1,29.73,NE,56,1.0,7.0,87,0.00,,,0.00,meteohub,2013-05-04 04:18:00,
2013-05-04 00:22:00,69.1,65.1,29.73,NE,56,0.0,7.0,87,0.00,,,0.00,meteohub,2013-05-04 04:22:00,
2013-05-04 00:27:00,69.1,65.1,29.73,NE,56,0.0,7.0,87,0.00,,,0.00,meteohub,2013-05-04 04:27:00,
2013-05-04 00:28:00,69.1,65.1,29.73,NE,56,0.0,7.0,87,0.00,,,0.00,meteohub,2013-05-04 04:28:00,
2013-05-04 00:34:00,69.3,65.3,29.73,NE,54,0.0,6.0,87,0.00,,,0.00,meteohub,2013-05-04 04:34:00,
2013-05-04 00:40:00,69.3,65.3,29.73,NE,52,0.0,4.0,87,0.00,,,0.00,meteohub,2013-05-04 04:40:00,
2013-05-04 00:46:00,69.1,65.1,29.73,NE,50,0.0,3.0,87,0.00,,,0.00,meteohub,2013-05-04 04:46:00,
2013-05-04 00:52:00,69.1,65.3,29.73,NE,50,0.0,2.0,88,0.00,,,0.00,meteohub,2013-05-04 04:52:00,
2013-05-04 00:57:00,69.1,65.3,29.73,NE,50,0.0,2.0,88,0.00,,,0.00,meteohub,2013-05-04 04:57:00,
2013-05-04 01:02:00,69.1,65.3,29.73,NE,50,0.0,3.0,88,0.00,,,0.00,meteohub,2013-05-04 05:02:00,
2013-05-04 01:07:00,69.1,65.3,29.72,NE,49,0.0,3.0,88,0.00,,,0.00,meteohub,2013-05-04 05:07:00,
2013-05-04 01:12:00,68.9,65.1,29.72,NE,49,0.0,3.0,88,0.00,,,0.00,meteohub,2013-05-04 05:12:00,
2013-05-04 01:17:00,68.7,64.9,29.72,NE,49,0.0,2.0,88,0.00,,,0.00,meteohub,2013-05-04 05:17:00,
2013-05-04 01:22:00,68.5,64.8,29.72,NE,45,0.0,4.0,88,0.00,,,0.00,meteohub,2013-05-04 05:22:00,
2013-05-04 01:27:00,68.5,64.8,29.72,NE,41,0.0,4.0,88,0.00,,,0.00,meteohub,2013-05-04 05:27:00,
2013-05-04 01:32:00,68.5,64.8,29.72,NNW,341,4.0,4.0,88,0.00,,,0.00,meteohub,2013-05-04 05:32:00,
2013-05-04 01:37:00,68.5,64.8,29.72,NNW,345,0.0,6.0,88,0.00,,,0.00,meteohub,2013-05-04 05:37:00,
2013-05-04 01:42:00,68.7,64.9,29.72,NNW,347,0.0,6.0,88,0.00,,,0.00,meteohub,2013-05-04 05:42:00,
2013-05-04 01:47:00,68.7,64.9,29.71,NNE,14,0.0,6.0,88,0.00,,,0.00,meteohub,2013-05-04 05:47:00,
2013-05-04 01:52:00,68.7,65.3,29.71,NNE,14,0.0,6.0,89,0.00,,,0.00,meteohub,2013-05-04 05:52:00,
2013-05-04 01:57:00,68.9,65.5,29.71,NNE,18,1.0,6.0,89,0.00,,,0.00,meteohub,2013-05-04 05:57:00,
2013-05-04 02:02:00,69.1,65.3,29.70,NNE,29,0.0,7.0,88,0.00,,,0.00,meteohub,2013-05-04 06:02:00,
2013-05-04 02:07:00,69.1,65.3,29.70,NNE,12,0.0,7.0,88,0.00,,,0.00,meteohub,2013-05-04 06:07:00,
2013-05-04 02:12:00,69.1,65.3,29.70,NNE,33,0.0,7.0,88,0.00,,,0.00,meteohub,2013-05-04 06:12:00,
2013-05-04 02:17:00,69.3,65.5,29.70,NE,45,2.0,6.0,88,0.00,,,0.00,meteohub,2013-05-04 06:17:00,
2013-05-04 02:22:00,69.4,65.7,29.70,NE,50,3.0,6.0,88,0.00,,,0.00,meteohub,2013-05-04 06:22:00,
2013-05-04 02:27:00,69.4,65.7,29.69,NE,46,2.0,6.0,88,0.00,,,0.00,meteohub,2013-05-04 06:27:00,
2013-05-04 02:32:00,69.3,65.5,29.69,NE,54,0.0,8.0,88,0.00,,,0.00,meteohub,2013-05-04 06:32:00,
2013-05-04 02:37:00,69.3,65.5,29.69,NNE,15,2.0,8.0,88,0.00,,,0.00,meteohub,2013-05-04 06:37:00,
2013-05-04 02:42:00,69.1,65.3,29.68,ENE,71,3.0,8.0,88,0.00,,,0.00,meteohub,2013-05-04 06:42:00,
2013-05-04 02:47:00,68.7,64.9,29.68,ENE,62,4.0,7.0,88,0.00,,,0.00,meteohub,2013-05-04 06:47:00,
2013-05-04 02:52:00,68.5,65.1,29.68,NE,42,2.0,9.0,89,0.00,,,0.00,meteohub,2013-05-04 06:52:00,
2013-05-04 02:57:00,68.5,65.1,29.68,NE,45,1.0,9.0,89,0.00,,,0.00,meteohub,2013-05-04 06:57:00,
2013-05-04 03:02:00,68.5,65.1,29.68,NE,37,0.0,9.0,89,0.00,,,0.00,meteohub,2013-05-04 07:02:00,
2013-05-04 03:07:00,68.5,65.1,29.68,NNW,334,2.0,6.0,89,0.00,,,0.00,meteohub,2013-05-04 07:07:00,
2013-05-04 03:12:00,68.4,65.3,29.68,NNW,348,0.0,6.0,90,0.00,,,0.00,meteohub,2013-05-04 07:12:00,
2013-05-04 03:17:00,68.4,65.3,29.68,North,359,0.0,6.0,90,0.00,,,0.00,meteohub,2013-05-04 07:17:00,
2013-05-04 03:22:00,68.4,65.3,29.68,North,4,3.0,6.0,90,0.00,,,0.00,meteohub,2013-05-04 07:22:00,
2013-05-04 03:27:00,68.4,65.3,29.68,North,354,1.0,5.0,90,0.00,,,0.00,meteohub,2013-05-04 07:27:00,
2013-05-04 03:32:00,68.5,65.5,29.68,North,354,5.0,7.0,90,0.00,,,0.00,meteohub,2013-05-04 07:32:00,
2013-05-04 03:37:00,68.5,65.5,29.68,NNE,23,4.0,7.0,90,0.00,,,0.00,meteohub,2013-05-04 07:37:00,
2013-05-04 03:42:00,68.5,65.5,29.68,NNE,21,0.0,7.0,90,0.00,,,0.00,meteohub,2013-05-04 07:42:00,
2013-05-04 03:47:00,68.7,65.7,29.67,NNE,23,4.0,6.0,90,0.00,,,0.00,meteohub,2013-05-04 07:47:00,
2013-05-04 03:52:00,68.7,65.7,29.67,NNE,19,0.0,5.0,90,0.00,,,0.00,meteohub,2013-05-04 07:52:00,
2013-05-04 03:57:00,68.7,65.7,29.67,NE,39,4.0,5.0,90,0.00,,,0.00,meteohub,2013-05-04 07:57:00,
2013-05-04 04:02:00,68.7,65.7,29.67,ENE,59,0.0,5.0,90,0.00,,,0.00,meteohub,2013-05-04 08:02:00,
2013-05-04 04:07:00,68.7,65.7,29.67,NE,56,0.0,5.0,90,0.00,,,0.00,meteohub,2013-05-04 08:07:00,
2013-05-04 04:12:00,68.7,65.7,29.66,NE,36,1.0,5.0,90,0.00,,,0.00,meteohub,2013-05-04 08:12:00,
2013-05-04 04:17:00,68.5,65.5,29.66,NE,37,0.0,5.0,90,0.00,,,0.00,meteohub,2013-05-04 08:17:00,
2013-05-04 04:22:00,68.5,65.5,29.66,NE,41,1.0,5.0,90,0.00,,,0.00,meteohub,2013-05-04 08:22:00,
2013-05-04 04:27:00,68.5,65.5,29.66,NNE,29,0.0,5.0,90,0.00,,,0.00,meteohub,2013-05-04 08:27:00,
2013-05-04 04:32:00,68.4,65.3,29.66,NE,35,0.0,5.0,90,0.00,,,0.00,meteohub,2013-05-04 08:32:00,
2013-05-04 04:37:00,68.4,65.3,29.67,NE,41,2.0,6.0,90,0.00,,,0.00,meteohub,2013-05-04 08:37:00,
2013-05-04 04:42:00,68.4,65.7,29.67,NE,41,0.0,6.0,91,0.00,,,0.00,meteohub,2013-05-04 08:42:00,
2013-05-04 04:47:00,68.2,65.5,29.67,NNE,31,0.0,6.0,91,0.00,,,0.00,meteohub,2013-05-04 08:47:00,
2013-05-04 04:52:00,68.2,65.5,29.67,NNE,23,0.0,4.0,91,0.00,,,0.00,meteohub,2013-05-04 08:52:00,
2013-05-04 04:57:00,68.2,65.5,29.68,NNE,23,0.0,4.0,91,0.00,,,0.00,meteohub,2013-05-04 08:57:00,
2013-05-04 05:02:00,68.2,65.5,29.68,NNE,14,3.0,4.0,91,0.00,,,0.00,meteohub,2013-05-04 09:02:00,
2013-05-04 05:07:00,68.2,65.5,29.68,North,8,0.0,5.0,91,0.00,,,0.00,meteohub,2013-05-04 09:07:00,
2013-05-04 05:12:00,68.4,65.7,29.68,NNE,16,0.0,5.0,91,0.00,,,0.00,meteohub,2013-05-04 09:12:00,
2013-05-04 05:17:00,68.4,65.7,29.68,NNE,25,0.0,5.0,91,0.00,,,0.00,meteohub,2013-05-04 09:17:00,
2013-05-04 05:22:00,68.4,65.7,29.68,NNE,25,0.0,5.0,91,0.00,,,0.00,meteohub,2013-05-04 09:22:00,
2013-05-04 05:27:00,68.4,65.7,29.68,NNE,25,0.0,5.0,91,0.00,,,0.00,meteohub,2013-05-04 09:27:00,
2013-05-04 05:32:00,68.4,65.7,29.67,NNE,25,0.0,5.0,91,0.00,,,0.00,meteohub,2013-05-04 09:32:00,
2013-05-04 05:37:00,68.2,65.5,29.68,NNE,25,0.0,1.0,91,0.00,,,0.00,meteohub,2013-05-04 09:37:00,
2013-05-04 05:42:00,68.4,65.7,29.68,NNE,25,0.0,1.0,91,0.00,,,0.00,meteohub,2013-05-04 09:42:00,
2013-05-04 05:47:00,68.4,65.7,29.68,NNE,25,0.0,1.0,91,0.00,,,0.00,meteohub,2013-05-04 09:47:00,
2013-05-04 05:52:00,68.4,65.7,29.68,NNE,26,0.0,1.0,91,0.00,,,0.00,meteohub,2013-05-04 09:52:00,
2013-05-04 05:57:00,68.4,65.7,29.68,NNE,25,0.0,1.0,91,0.00,,,0.00,meteohub,2013-05-04 09:57:00,
2013-05-04 06:02:00,68.2,65.5,29.68,NNE,26,0.0,1.0,91,0.00,,,0.00,meteohub,2013-05-04 10:02:00,
2013-05-04 06:07:00,68.4,66.0,29.68,NNE,26,0.0,1.0,92,0.00,,,0.00,meteohub,2013-05-04 10:07:00,
2013-05-04 06:12:00,68.4,66.0,29.68,NNE,26,0.0,1.0,92,0.00,,,0.00,meteohub,2013-05-04 10:12:00,
2013-05-04 06:17:00,68.4,66.0,29.68,NNE,25,0.0,2.0,92,0.00,,,0.00,meteohub,2013-05-04 10:17:00,
2013-05-04 06:22:00,68.4,66.0,29.69,NNE,25,0.0,2.0,92,0.00,,,0.00,meteohub,2013-05-04 10:22:00,
2013-05-04 06:27:00,68.5,66.2,29.69,NNE,25,0.0,2.0,92,0.00,,,0.00,meteohub,2013-05-04 10:27:00,
2013-05-04 06:32:00,68.7,66.4,29.69,North,359,0.0,0.0,92,0.00,,,0.00,meteohub,2013-05-04 10:32:00,
2013-05-04 06:37:00,68.7,66.0,29.69,North,4,0.0,4.0,91,0.00,,,0.00,meteohub,2013-05-04 10:37:00,
2013-05-04 06:42:00,68.5,65.8,29.69,North,8,0.0,4.0,91,0.00,,,0.00,meteohub,2013-05-04 10:42:00,
2013-05-04 06:47:00,68.5,65.8,29.69,North,8,0.0,4.0,91,0.00,,,0.00,meteohub,2013-05-04 10:47:00,
2013-05-04 06:52:00,68.4,65.7,29.69,NNE,16,0.0,1.0,91,0.00,,,0.00,meteohub,2013-05-04 10:52:00,
2013-05-04 06:57:00,68.2,65.8,29.69,NNE,16,0.0,3.0,92,0.00,,,0.00,meteohub,2013-05-04 10:57:00,
2013-05-04 07:02:00,68.2,65.8,29.70,NNE,16,0.0,3.0,92,0.00,,,0.00,meteohub,2013-05-04 11:02:00,
2013-05-04 07:07:00,68.2,65.8,29.70,NNE,16,0.0,2.0,92,0.00,,,0.00,meteohub,2013-05-04 11:07:00,
2013-05-04 07:12:00,68.2,65.8,29.70,NNE,16,0.0,1.0,92,0.00,,,0.00,meteohub,2013-05-04 11:12:00,
2013-05-04 07:17:00,68.2,65.8,29.70,NNE,16,0.0,1.0,92,0.00,,,0.00,meteohub,2013-05-04 11:17:00,
2013-05-04 07:22:00,68.4,66.0,29.70,NNE,16,0.0,0.0,92,0.00,,,0.00,meteohub,2013-05-04 11:22:00,
2013-05-04 07:27:00,68.5,66.2,29.70,NNE,16,0.0,0.0,92,0.00,,,0.00,meteohub,2013-05-04 11:27:00,
2013-05-04 07:32:00,68.5,66.2,29.70,NNE,16,0.0,1.0,92,0.00,,,0.00,meteohub,2013-05-04 11:32:00,
2013-05-04 07:37:00,68.7,66.4,29.70,NNE,16,0.0,1.0,92,0.00,,,0.00,meteohub,2013-05-04 11:37:00,
2013-05-04 07:42:00,68.7,66.0,29.70,NNE,16,0.0,1.0,91,0.00,,,0.00,meteohub,2013-05-04 11:42:00,
2013-05-04 07:47:00,68.7,66.0,29.70,NNE,16,0.0,0.0,91,0.00,,,0.00,meteohub,2013-05-04 11:47:00,
2013-05-04 07:52:00,68.9,66.2,29.71,NNE,16,0.0,1.0,91,0.00,,,0.00,meteohub,2013-05-04 11:52:00,
2013-05-04 07:57:00,69.1,66.4,29.71,NNE,16,0.0,1.0,91,0.00,,,0.00,meteohub,2013-05-04 11:57:00,
2013-05-04 08:02:00,69.1,66.4,29.71,NNE,16,0.0,1.0,91,0.00,,,0.00,meteohub,2013-05-04 12:02:00,
2013-05-04 08:07:00,69.1,66.4,29.71,NNE,16,0.0,1.0,91,0.00,,,0.00,meteohub,2013-05-04 12:07:00,
2013-05-04 08:12:00,69.3,66.6,29.71,NNE,16,0.0,1.0,91,0.00,,,0.00,meteohub,2013-05-04 12:12:00,
2013-05-04 08:17:00,69.4,66.7,29.71,NNE,16,0.0,0.0,91,0.00,,,0.00,meteohub,2013-05-04 12:17:00,
2013-05-04 08:25:00,69.6,66.9,29.71,NNE,16,0.0,0.0,91,0.00,,,0.00,meteohub,2013-05-04 12:25:00,
2013-05-04 08:31:00,70.0,67.3,29.71,NNE,16,3.0,0.0,91,0.00,,,0.00,meteohub,2013-05-04 12:31:00,
2013-05-04 08:37:00,70.3,67.3,29.71,NNE,18,0.0,3.0,90,0.00,,,0.00,meteohub,2013-05-04 12:37:00,
2013-05-04 08:42:00,70.5,67.5,29.71,NNE,18,0.0,3.0,90,0.00,,,0.00,meteohub,2013-05-04 12:42:00,
2013-05-04 08:47:00,70.9,67.5,29.71,NNE,18,0.0,3.0,89,0.00,,,0.00,meteohub,2013-05-04 12:47:00,
2013-05-04 08:52:00,71.1,67.6,29.72,NNE,18,0.0,2.0,89,0.00,,,0.00,meteohub,2013-05-04 12:52:00,
2013-05-04 08:57:00,71.2,67.8,29.72,NNE,18,0.0,1.0,89,0.00,,,0.00,meteohub,2013-05-04 12:57:00,
2013-05-04 09:02:00,71.6,68.2,29.71,North,4,0.0,0.0,89,0.00,,,0.00,meteohub,2013-05-04 13:02:00,
2013-05-04 09:07:00,72.0,67.8,29.72,WNW,302,0.0,5.0,87,0.00,,,0.00,meteohub,2013-05-04 13:07:00,
2013-05-04 09:12:00,72.3,67.6,29.71,West,272,9.0,9.0,85,0.00,,,0.00,meteohub,2013-05-04 13:12:00,
2013-05-04 09:17:00,72.7,67.8,29.72,WNW,291,2.0,9.0,85,0.00,,,0.00,meteohub,2013-05-04 13:17:00,
2013-05-04 09:22:00,72.7,67.6,29.72,WNW,286,1.0,9.0,84,0.00,,,0.00,meteohub,2013-05-04 13:22:00,
2013-05-04 09:27:00,72.9,67.8,29.72,NW,324,6.0,9.0,84,0.00,,,0.00,meteohub,2013-05-04 13:27:00,
2013-05-04 09:32:00,73.0,68.0,29.72,WSW,256,4.0,11.0,84,0.00,,,0.00,meteohub,2013-05-04 13:32:00,
2013-05-04 09:37:00,73.0,67.6,29.72,West,274,0.0,11.0,83,0.00,,,0.00,meteohub,2013-05-04 13:37:00,
2013-05-04 09:42:00,73.2,67.5,29.72,West,267,10.0,11.0,82,0.00,,,0.00,meteohub,2013-05-04 13:42:00,
2013-05-04 09:47:00,73.2,67.8,29.72,West,271,4.0,11.0,83,0.00,,,0.00,meteohub,2013-05-04 13:47:00,
2013-05-04 09:52:00,73.6,67.8,29.72,West,279,4.0,11.0,82,0.00,,,0.00,meteohub,2013-05-04 13:52:00,
2013-05-04 09:57:00,73.6,67.8,29.72,WNW,285,8.0,11.0,82,0.00,,,0.00,meteohub,2013-05-04 13:57:00,
2013-05-04 10:02:00,73.6,68.2,29.72,NW,316,0.0,12.0,83,0.00,,,0.00,meteohub,2013-05-04 14:02:00,
2013-05-04 10:07:00,73.9,68.2,29.72,NW,310,2.0,12.0,82,0.00,,,0.00,meteohub,2013-05-04 14:07:00,
2013-05-04 10:12:00,73.9,68.2,29.72,WNW,291,5.0,12.0,82,0.00,,,0.00,meteohub,2013-05-04 14:12:00,
2013-05-04 10:17:00,73.9,67.8,29.72,NNW,333,7.0,10.0,81,0.00,,,0.00,meteohub,2013-05-04 14:17:00,
2013-05-04 10:22:00,73.9,67.5,29.72,WSW,248,1.0,10.0,80,0.00,,,0.00,meteohub,2013-05-04 14:22:00,
2013-05-04 10:27:00,74.1,67.1,29.73,West,264,0.0,10.0,79,0.00,,,0.00,meteohub,2013-05-04 14:27:00,
2013-05-04 10:32:00,74.5,67.8,29.73,NNE,23,0.0,12.0,80,0.00,,,0.00,meteohub,2013-05-04 14:32:00,
2013-05-04 10:37:00,74.7,67.3,29.73,NW,307,3.0,12.0,78,0.00,,,0.00,meteohub,2013-05-04 14:37:00,
2013-05-04 10:42:00,74.3,67.3,29.73,West,278,9.0,12.0,79,0.00,,,0.00,meteohub,2013-05-04 14:42:00,
2013-05-04 10:47:00,74.5,67.8,29.73,WNW,301,4.0,12.0,80,0.00,,,0.00,meteohub,2013-05-04 14:47:00,
2013-05-04 10:52:00,74.8,67.5,29.73,NW,316,3.0,12.0,78,0.00,,,0.00,meteohub,2013-05-04 14:52:00,
2013-05-04 10:57:00,74.8,67.5,29.73,NNW,332,5.0,11.0,78,0.00,,,0.00,meteohub,2013-05-04 14:57:00,
2013-05-04 11:02:00,75.2,67.8,29.73,WNW,293,12.0,12.0,78,0.00,,,0.00,meteohub,2013-05-04 15:02:00,
2013-05-04 11:07:00,75.0,68.0,29.73,NW,318,0.0,13.0,79,0.00,,,0.00,meteohub,2013-05-04 15:07:00,
2013-05-04 11:12:00,75.0,67.6,29.73,NW,308,10.0,13.0,78,0.00,,,0.00,meteohub,2013-05-04 15:12:00,
2013-05-04 11:17:00,74.8,67.8,29.73,WNW,303,1.0,13.0,79,0.00,,,0.00,meteohub,2013-05-04 15:17:00,
2013-05-04 11:22:00,74.8,67.8,29.73,NW,326,4.0,13.0,79,0.00,,,0.00,meteohub,2013-05-04 15:22:00,
2013-05-04 11:27:00,75.2,67.8,29.73,North,354,4.0,12.0,78,0.00,,,0.00,meteohub,2013-05-04 15:27:00,
2013-05-04 11:32:00,75.0,67.3,29.73,NW,315,9.0,12.0,77,0.00,,,0.00,meteohub,2013-05-04 15:32:00,
2013-05-04 11:37:00,75.2,68.2,29.73,West,280,5.0,14.0,79,0.00,,,0.00,meteohub,2013-05-04 15:37:00,
2013-05-04 11:38:00,75.4,68.0,29.73,NW,320,11.0,14.0,78,0.00,,,0.00,meteohub,2013-05-04 15:38:00,
2013-05-04 11:44:00,75.0,67.6,29.74,WSW,238,6.0,14.0,78,0.00,,,0.00,meteohub,2013-05-04 15:44:00,
2013-05-04 11:50:00,75.2,67.8,29.74,NW,312,7.0,14.0,78,0.00,,,0.00,meteohub,2013-05-04 15:50:00,
2013-05-04 11:56:00,75.4,68.0,29.74,West,269,6.0,14.0,78,0.00,,,0.00,meteohub,2013-05-04 15:56:00,
2013-05-04 12:02:00,75.4,68.4,29.73,West,262,2.0,14.0,79,0.00,,,0.00,meteohub,2013-05-04 16:02:00,
2013-05-04 12:07:00,75.2,67.8,29.74,WNW,301,4.0,12.0,78,0.00,,,0.00,meteohub,2013-05-04 16:07:00,
2013-05-04 12:12:00,75.0,68.0,29.73,NW,322,4.0,12.0,79,0.00,,,0.00,meteohub,2013-05-04 16:12:00,
2013-05-04 12:17:00,75.4,68.4,29.73,NNE,23,5.0,12.0,79,0.00,,,0.00,meteohub,2013-05-04 16:17:00,
2013-05-04 12:22:00,75.2,67.8,29.73,West,278,5.0,12.0,78,0.00,,,0.00,meteohub,2013-05-04 16:22:00,
2013-05-04 12:27:00,75.4,68.4,29.73,WNW,284,3.0,14.0,79,0.00,,,0.00,meteohub,2013-05-04 16:27:00,
2013-05-04 12:32:00,75.4,68.0,29.73,West,274,7.0,14.0,78,0.00,,,0.00,meteohub,2013-05-04 16:32:00,
2013-05-04 12:37:00,75.2,67.8,29.73,WSW,254,5.0,14.0,78,0.00,,,0.00,meteohub,2013-05-04 16:37:00,
2013-05-04 12:42:00,75.2,67.8,29.73,NNW,330,2.0,12.0,78,0.00,,,0.00,meteohub,2013-05-04 16:42:00,
2013-05-04 12:47:00,75.6,68.5,29.72,NW,322,2.0,12.0,79,0.00,,,0.00,meteohub,2013-05-04 16:47:00,
2013-05-04 12:52:00,76.3,68.5,29.73,WNW,294,5.0,12.0,77,0.00,,,0.00,meteohub,2013-05-04 16:52:00,
2013-05-04 12:57:00,76.3,68.9,29.72,NW,319,4.0,10.0,78,0.00,,,0.00,meteohub,2013-05-04 16:57:00,
2013-05-04 13:02:00,76.5,69.1,29.72,North,359,1.0,10.0,78,0.00,,,0.00,meteohub,2013-05-04 17:02:00,
2013-05-04 13:07:00,77.2,68.7,29.72,WNW,297,9.0,10.0,75,0.00,,,0.00,meteohub,2013-05-04 17:07:00,
2013-05-04 13:12:00,76.3,68.5,29.72,NW,310,10.0,10.0,77,0.00,,,0.00,meteohub,2013-05-04 17:12:00,
2013-05-04 13:17:00,75.9,68.5,29.72,NW,304,7.0,12.0,78,0.00,,,0.00,meteohub,2013-05-04 17:17:00,
2013-05-04 13:22:00,76.1,68.7,29.72,WNW,295,8.0,12.0,78,0.00,,,0.00,meteohub,2013-05-04 17:22:00,
2013-05-04 13:27:00,75.9,68.5,29.72,WSW,243,8.0,12.0,78,0.00,,,0.00,meteohub,2013-05-04 17:27:00,
2013-05-04 13:32:00,75.6,68.5,29.72,WSW,248,9.0,12.0,79,0.00,,,0.00,meteohub,2013-05-04 17:32:00,
2013-05-04 13:37:00,75.9,68.9,29.72,WNW,285,6.0,14.0,79,0.00,,,0.00,meteohub,2013-05-04 17:37:00,
2013-05-04 13:42:00,75.6,68.2,29.72,WSW,237,3.0,19.0,78,0.00,,,0.00,meteohub,2013-05-04 17:42:00,
2013-05-04 13:47:00,75.6,68.5,29.72,WSW,252,8.0,19.0,79,0.00,,,0.00,meteohub,2013-05-04 17:47:00,
2013-05-04 13:52:00,75.7,68.7,29.72,WNW,282,10.0,19.0,79,0.00,,,0.00,meteohub,2013-05-04 17:52:00,
2013-05-04 13:57:00,75.9,68.5,29.72,WNW,284,4.0,15.0,78,0.00,,,0.00,meteohub,2013-05-04 17:57:00,
2013-05-04 14:02:00,75.0,67.6,29.71,West,259,12.0,14.0,78,0.00,,,0.00,meteohub,2013-05-04 18:02:00,
2013-05-04 14:07:00,74.8,68.2,29.72,West,276,10.0,16.0,80,0.00,,,0.00,meteohub,2013-05-04 18:07:00,
2013-05-04 14:12:00,74.5,68.9,29.72,West,259,8.0,17.0,83,0.00,,,0.00,meteohub,2013-05-04 18:12:00,
2013-05-04 14:17:00,73.6,68.7,29.72,WNW,299,10.0,17.0,85,0.00,,,0.00,meteohub,2013-05-04 18:17:00,
2013-05-04 14:22:00,73.4,68.2,29.72,West,263,9.0,18.0,84,0.00,,,0.00,meteohub,2013-05-04 18:22:00,
2013-05-04 14:27:00,73.6,68.4,29.72,SW,222,6.0,18.0,84,0.00,,,0.00,meteohub,2013-05-04 18:27:00,
2013-05-04 14:32:00,73.8,68.5,29.72,WNW,282,5.0,16.0,84,0.00,,,0.00,meteohub,2013-05-04 18:32:00,
2013-05-04 14:37:00,73.9,69.1,29.72,NW,310,5.0,16.0,85,0.00,,,0.00,meteohub,2013-05-04 18:37:00,
2013-05-04 14:42:00,73.9,69.1,29.72,WNW,295,13.0,24.0,85,0.00,,,0.00,meteohub,2013-05-04 18:42:00,
2013-05-04 14:47:00,73.8,68.9,29.72,West,261,11.0,24.0,85,0.00,,,0.00,meteohub,2013-05-04 18:47:00,
2013-05-04 14:52:00,73.6,68.2,29.72,NW,314,15.0,24.0,83,0.00,,,0.00,meteohub,2013-05-04 18:52:00,
2013-05-04 14:57:00,73.6,68.4,29.71,WNW,301,11.0,23.0,84,0.00,,,0.00,meteohub,2013-05-04 18:57:00,
2013-05-04 15:02:00,73.8,68.5,29.71,NW,311,13.0,23.0,84,0.00,,,0.00,meteohub,2013-05-04 19:02:00,
2013-05-04 15:07:00,73.8,68.5,29.71,NW,305,5.0,22.0,84,0.00,,,0.00,meteohub,2013-05-04 19:07:00,
2013-05-04 15:12:00,74.5,68.2,29.71,NW,305,6.0,20.0,81,0.00,,,0.00,meteohub,2013-05-04 19:12:00,
2013-05-04 15:17:00,74.8,68.5,29.70,WSW,245,9.0,20.0,81,0.00,,,0.00,meteohub,2013-05-04 19:17:00,
2013-05-04 15:22:00,74.5,68.2,29.70,NW,305,14.0,27.0,81,0.00,,,0.00,meteohub,2013-05-04 19:22:00,
2013-05-04 15:27:00,74.3,68.0,29.70,WNW,289,14.0,27.0,81,0.00,,,0.00,meteohub,2013-05-04 19:27:00,
2013-05-04 15:32:00,74.1,68.2,29.70,NW,315,10.0,27.0,82,0.00,,,0.00,meteohub,2013-05-04 19:32:00,
2013-05-04 15:37:00,73.6,67.8,29.70,WSW,240,9.0,22.0,82,0.00,,,0.00,meteohub,2013-05-04 19:37:00,
2013-05-04 15:42:00,73.6,68.2,29.70,West,276,9.0,22.0,83,0.00,,,0.00,meteohub,2013-05-04 19:42:00,
2013-05-04 15:47:00,73.8,68.4,29.70,West,266,9.0,20.0,83,0.00,,,0.00,meteohub,2013-05-04 19:47:00,
2013-05-04 15:52:00,73.9,68.2,29.70,NW,326,7.0,22.0,82,0.00,,,0.00,meteohub,2013-05-04 19:52:00,
2013-05-04 15:57:00,73.9,68.2,29.69,NNW,332,17.0,22.0,82,0.00,,,0.00,meteohub,2013-05-04 19:57:00,
2013-05-04 16:02:00,73.8,68.4,29.70,WNW,293,10.0,22.0,83,0.00,,,0.00,meteohub,2013-05-04 20:02:00,
2013-05-04 16:07:00,73.8,68.5,29.69,WNW,289,5.0,25.0,84,0.00,,,0.00,meteohub,2013-05-04 20:07:00,
2013-05-04 16:12:00,74.1,68.9,29.69,WNW,295,16.0,25.0,84,0.00,,,0.00,meteohub,2013-05-04 20:12:00,
2013-05-04 16:17:00,73.9,69.1,29.69,West,275,17.0,25.0,85,0.00,,,0.00,meteohub,2013-05-04 20:17:00,
2013-05-04 16:22:00,74.1,68.9,29.70,NW,307,5.0,20.0,84,0.00,,,0.00,meteohub,2013-05-04 20:22:00,
2013-05-04 16:27:00,74.7,69.1,29.70,WNW,303,6.0,20.0,83,0.00,,,0.00,meteohub,2013-05-04 20:27:00,
2013-05-04 16:32:00,74.1,68.9,29.70,NW,309,7.0,20.0,84,0.00,,,0.00,meteohub,2013-05-04 20:32:00,
2013-05-04 16:37:00,74.1,68.5,29.70,WNW,303,9.0,22.0,83,0.00,,,0.00,meteohub,2013-05-04 20:37:00,
2013-05-04 16:42:00,74.5,68.5,29.70,West,262,10.0,22.0,82,0.00,,,0.00,meteohub,2013-05-04 20:42:00,
2013-05-04 16:47:00,74.5,68.5,29.70,WSW,258,15.0,20.0,82,0.00,,,0.00,meteohub,2013-05-04 20:47:00,
2013-05-04 16:52:00,74.3,68.7,29.70,WNW,286,7.0,20.0,83,0.00,,,0.00,meteohub,2013-05-04 20:52:00,
2013-05-04 16:57:00,74.1,68.5,29.70,WNW,285,10.0,18.0,83,0.00,,,0.00,meteohub,2013-05-04 20:57:00,
2013-05-04 17:02:00,73.9,68.7,29.69,WNW,295,10.0,18.0,84,0.00,,,0.00,meteohub,2013-05-04 21:02:00,
2013-05-04 17:07:00,73.4,68.5,29.69,WSW,254,10.0,17.0,85,0.00,,,0.00,meteohub,2013-05-04 21:07:00,
2013-05-04 17:12:00,73.2,68.7,29.69,WNW,293,3.0,17.0,86,0.00,,,0.00,meteohub,2013-05-04 21:12:00,
2013-05-04 17:17:00,73.8,69.3,29.69,WNW,295,9.0,17.0,86,0.00,,,0.00,meteohub,2013-05-04 21:17:00,
2013-05-04 17:22:00,73.6,68.7,29.69,WNW,287,10.0,17.0,85,0.00,,,0.00,meteohub,2013-05-04 21:22:00,
2013-05-04 17:27:00,73.4,68.5,29.69,WSW,247,9.0,15.0,85,0.00,,,0.00,meteohub,2013-05-04 21:27:00,
2013-05-04 17:32:00,73.4,68.9,29.69,WSW,257,8.0,13.0,86,0.00,,,0.00,meteohub,2013-05-04 21:32:00,
2013-05-04 17:37:00,73.2,68.7,29.69,WSW,241,7.0,13.0,86,0.00,,,0.00,meteohub,2013-05-04 21:37:00,
2013-05-04 17:42:00,73.2,68.7,29.69,WNW,286,5.0,13.0,86,0.00,,,0.00,meteohub,2013-05-04 21:42:00,
2013-05-04 17:47:00,73.2,68.7,29.69,West,270,7.0,13.0,86,0.00,,,0.00,meteohub,2013-05-04 21:47:00,
2013-05-04 17:52:00,73.6,69.1,29.69,West,262,0.0,11.0,86,0.00,,,0.00,meteohub,2013-05-04 21:52:00,
2013-05-04 17:57:00,73.9,69.1,29.69,West,274,2.0,10.0,85,0.00,,,0.00,meteohub,2013-05-04 21:57:00,
2013-05-04 18:02:00,74.7,69.4,29.69,WNW,285,0.0,10.0,84,0.00,,,0.00,meteohub,2013-05-04 22:02:00,
2013-05-04 18:07:00,74.8,68.9,29.69,NNW,339,1.0,8.0,82,0.00,,,0.00,meteohub,2013-05-04 22:07:00,
2013-05-04 18:12:00,74.7,68.4,29.69,NW,312,2.0,8.0,81,0.00,,,0.00,meteohub,2013-05-04 22:12:00,
2013-05-04 18:17:00,74.5,68.5,29.69,NW,305,4.0,8.0,82,0.00,,,0.00,meteohub,2013-05-04 22:17:00,
2013-05-04 18:22:00,74.7,69.1,29.69,NW,318,1.0,8.0,83,0.00,,,0.00,meteohub,2013-05-04 22:22:00,
2013-05-04 18:27:00,74.7,68.7,29.69,NW,318,0.0,8.0,82,0.00,,,0.00,meteohub,2013-05-04 22:27:00,
2013-05-04 18:32:00,74.5,68.9,29.69,NW,310,3.0,8.0,83,0.00,,,0.00,meteohub,2013-05-04 22:32:00,
2013-05-04 18:37:00,75.0,69.1,29.69,NW,318,2.0,8.0,82,0.00,,,0.00,meteohub,2013-05-04 22:37:00,
2013-05-04 18:42:00,75.4,68.4,29.70,NNE,19,4.0,8.0,79,0.00,,,0.00,meteohub,2013-05-04 22:42:00,
2013-05-04 18:47:00,75.6,68.5,29.70,NNW,337,3.0,8.0,79,0.00,,,0.00,meteohub,2013-05-04 22:47:00,
2013-05-04 18:52:00,75.4,68.4,29.70,NNW,336,10.0,10.0,79,0.00,,,0.00,meteohub,2013-05-04 22:52:00,
2013-05-04 18:57:00,75.0,68.4,29.70,North,350,0.0,10.0,80,0.00,,,0.00,meteohub,2013-05-04 22:57:00,
2013-05-04 19:02:00,75.2,68.2,29.70,North,4,3.0,10.0,79,0.00,,,0.00,meteohub,2013-05-04 23:02:00,
2013-05-04 19:07:00,75.0,68.0,29.70,NW,310,2.0,10.0,79,0.00,,,0.00,meteohub,2013-05-04 23:07:00,
2013-05-04 19:12:00,75.0,68.4,29.70,NNW,347,1.0,9.0,80,0.00,,,0.00,meteohub,2013-05-04 23:12:00,
2013-05-04 19:17:00,74.8,68.5,29.70,NNW,340,3.0,9.0,81,0.00,,,0.00,meteohub,2013-05-04 23:17:00,
2013-05-04 19:22:00,74.7,68.4,29.71,North,350,3.0,8.0,81,0.00,,,0.00,meteohub,2013-05-04 23:22:00,
2013-05-04 19:27:00,74.1,68.2,29.71,NE,41,0.0,8.0,82,0.00,,,0.00,meteohub,2013-05-04 23:27:00,
2013-05-04 19:32:00,73.9,68.4,29.71,WNW,293,3.0,9.0,83,0.00,,,0.00,meteohub,2013-05-04 23:32:00,
2013-05-04 19:37:00,73.9,68.4,29.71,WSW,251,1.0,12.0,83,0.00,,,0.00,meteohub,2013-05-04 23:37:00,
2013-05-04 19:42:00,73.9,68.2,29.71,WSW,242,6.0,12.0,82,0.00,,,0.00,meteohub,2013-05-04 23:42:00,
2013-05-04 19:47:00,73.9,68.4,29.71,NW,316,6.0,13.0,83,0.00,,,0.00,meteohub,2013-05-04 23:47:00,
2013-05-04 19:52:00,73.9,68.2,29.71,NE,42,0.0,13.0,82,0.00,,,0.00,meteohub,2013-05-04 23:52:00,
2013-05-04 19:57:00,73.9,68.2,29.71,NW,310,6.0,12.0,82,0.00,,,0.00,meteohub,2013-05-04 23:57:00,
2013-05-04 20:02:00,73.9,68.2,29.71,NW,317,0.0,9.0,82,0.00,,,0.00,meteohub,2013-05-05 00:02:00,
2013-05-04 20:07:00,73.8,67.6,29.71,NNW,333,3.0,9.0,81,0.00,,,0.00,meteohub,2013-05-05 00:07:00,
2013-05-04 20:12:00,73.6,67.5,29.71,NNW,340,8.0,12.0,81,0.00,,,0.00,meteohub,2013-05-05 00:12:00,
2013-05-04 20:17:00,73.4,67.3,29.71,WNW,293,4.0,14.0,81,0.00,,,0.00,meteohub,2013-05-05 00:17:00,
2013-05-04 20:22:00,73.4,67.6,29.72,NNE,20,0.0,14.0,82,0.00,,,0.00,meteohub,2013-05-05 00:22:00,
2013-05-04 20:27:00,73.4,67.6,29.72,West,271,5.0,14.0,82,0.00,,,0.00,meteohub,2013-05-05 00:27:00,
2013-05-04 20:32:00,73.2,67.5,29.72,SW,231,0.0,14.0,82,0.00,,,0.00,meteohub,2013-05-05 00:32:00,
2013-05-04 20:37:00,73.2,67.5,29.72,WNW,301,0.0,14.0,82,0.00,,,0.00,meteohub,2013-05-05 00:37:00,
2013-05-04 20:42:00,73.0,67.3,29.72,WNW,297,0.0,17.0,82,0.00,,,0.00,meteohub,2013-05-05 00:42:00,
2013-05-04 20:47:00,73.0,67.6,29.73,WSW,244,7.0,17.0,83,0.00,,,0.00,meteohub,2013-05-05 00:47:00,
2013-05-04 20:52:00,73.0,67.6,29.73,SW,228,11.0,17.0,83,0.00,,,0.00,meteohub,2013-05-05 00:52:00,
2013-05-04 20:57:00,73.0,67.6,29.73,NW,326,5.0,14.0,83,0.00,,,0.00,meteohub,2013-05-05 00:57:00,
2013-05-04 21:02:00,73.0,67.6,29.73,West,274,0.0,16.0,83,0.00,,,0.00,meteohub,2013-05-05 01:02:00,
2013-05-04 21:07:00,73.0,67.6,29.73,NW,307,3.0,16.0,83,0.00,,,0.00,meteohub,2013-05-05 01:07:00,
2013-05-04 21:12:00,72.9,67.5,29.73,WSW,255,0.0,13.0,83,0.00,,,0.00,meteohub,2013-05-05 01:12:00,
2013-05-04 21:17:00,72.9,67.5,29.74,NW,313,2.0,14.0,83,0.00,,,0.00,meteohub,2013-05-05 01:17:00,
2013-05-04 21:22:00,72.9,67.5,29.74,WNW,293,6.0,14.0,83,0.00,,,0.00,meteohub,2013-05-05 01:22:00,
2013-05-04 21:27:00,72.7,66.9,29.74,NW,314,0.0,14.0,82,0.00,,,0.00,meteohub,2013-05-05 01:27:00,
2013-05-04 21:32:00,72.7,66.6,29.74,NW,322,0.0,13.0,81,0.00,,,0.00,meteohub,2013-05-05 01:32:00,
2013-05-04 21:37:00,72.7,66.6,29.74,WNW,284,3.0,13.0,81,0.00,,,0.00,meteohub,2013-05-05 01:37:00,
2013-05-04 21:42:00,72.7,66.9,29.75,NW,317,5.0,10.0,82,0.00,,,0.00,meteohub,2013-05-05 01:42:00,
2013-05-04 21:47:00,72.5,67.1,29.75,NNW,344,0.0,10.0,83,0.00,,,0.00,meteohub,2013-05-05 01:47:00,
2013-05-04 21:52:00,72.5,67.8,29.75,West,269,1.0,17.0,85,0.00,,,0.00,meteohub,2013-05-05 01:52:00,
2013-05-04 21:57:00,72.3,67.8,29.76,WNW,293,3.0,17.0,86,0.00,,,0.00,meteohub,2013-05-05 01:57:00,
2013-05-04 22:02:00,72.3,67.8,29.76,West,279,5.0,17.0,86,0.00,,,0.00,meteohub,2013-05-05 02:02:00,
2013-05-04 22:07:00,72.1,68.0,29.77,NNW,337,4.0,17.0,87,0.00,,,0.00,meteohub,2013-05-05 02:07:00,
2013-05-04 22:12:00,72.0,67.8,29.77,West,259,2.0,19.0,87,0.00,,,0.00,meteohub,2013-05-05 02:12:00,
2013-05-04 22:17:00,72.0,67.8,29.77,West,261,9.0,19.0,87,0.00,,,0.00,meteohub,2013-05-05 02:17:00,
2013-05-04 22:22:00,71.8,68.0,29.77,NW,313,5.0,19.0,88,0.00,,,0.00,meteohub,2013-05-05 02:22:00,
2013-05-04 22:27:00,71.6,67.5,29.77,WNW,282,9.0,16.0,87,0.00,,,0.00,meteohub,2013-05-05 02:27:00,
2013-05-04 22:32:00,71.6,67.5,29.78,NW,317,8.0,14.0,87,0.00,,,0.00,meteohub,2013-05-05 02:32:00,
2013-05-04 22:37:00,71.8,67.3,29.77,WNW,284,4.0,15.0,86,0.00,,,0.00,meteohub,2013-05-05 02:37:00,
2013-05-04 22:42:00,71.8,67.3,29.78,NNW,337,2.0,16.0,86,0.00,,,0.00,meteohub,2013-05-05 02:42:00,
2013-05-04 22:47:00,71.8,67.3,29.78,West,281,6.0,17.0,86,0.00,,,0.00,meteohub,2013-05-05 02:47:00,
2013-05-04 22:52:00,71.6,66.9,29.78,WNW,302,10.0,17.0,85,0.00,,,0.00,meteohub,2013-05-05 02:52:00,
2013-05-04 22:57:00,71.6,66.9,29.78,WSW,247,5.0,17.0,85,0.00,,,0.00,meteohub,2013-05-05 02:57:00,
2013-05-04 23:02:00,71.6,66.6,29.78,WNW,303,9.0,20.0,84,0.00,,,0.00,meteohub,2013-05-05 03:02:00,
2013-05-04 23:07:00,71.4,66.7,29.78,WNW,291,5.0,20.0,85,0.00,,,0.00,meteohub,2013-05-05 03:07:00,
2013-05-04 23:12:00,71.1,66.7,29.78,West,274,3.0,18.0,86,0.00,,,0.00,meteohub,2013-05-05 03:12:00,
2013-05-04 23:17:00,71.1,66.7,29.78,WSW,253,4.0,18.0,86,0.00,,,0.00,meteohub,2013-05-05 03:17:00,
2013-05-04 23:22:00,70.9,66.7,29.79,NNW,335,2.0,18.0,87,0.00,,,0.00,meteohub,2013-05-05 03:22:00,
2013-05-04 23:27:00,70.7,66.9,29.79,WNW,291,6.0,20.0,88,0.00,,,0.00,meteohub,2013-05-05 03:27:00,
2013-05-04 23:32:00,70.3,66.6,29.79,NW,325,8.0,20.0,88,0.00,,,0.00,meteohub,2013-05-05 03:32:00,
2013-05-04 23:37:00,70.3,66.6,29.79,WNW,293,11.0,20.0,88,0.00,,,0.00,meteohub,2013-05-05 03:37:00,
2013-05-04 23:42:00,70.0,66.6,29.79,NE,42,6.0,20.0,89,0.00,,,0.00,meteohub,2013-05-05 03:42:00,
2013-05-04 23:47:00,69.6,66.2,29.79,WNW,288,6.0,20.0,89,0.00,,,0.00,meteohub,2013-05-05 03:47:00,
2013-05-04 23:52:00,69.6,66.2,29.79,NW,314,9.0,20.0,89,0.00,,,0.00,meteohub,2013-05-05 03:52:00,
2013-05-04 23:57:00,69.4,66.4,29.79,WNW,289,2.0,19.0,90,0.00,,,0.00,meteohub,2013-05-05 03:57:00,